TimeCET,TemperatureF,Dew PointF,Humidity,Sea Level PressureIn,VisibilityMPH,Wind Direction,Wind SpeedMPH,Gust SpeedMPH,PrecipitationIn,Events,Conditions,WindDirDegrees,DateUTC
12:20 AM,30.2,23.0,75,29.68,6.2,ENE,6.9,-,N/A,,Scattered Clouds,70,2013-02-11 23:20:00
12:50 AM,30.2,23.0,75,29.68,6.2,ENE,9.2,-,N/A,,Partly Cloudy,60,2013-02-11 23:50:00
1:00 AM,29,23,71,29.74,7,ENE,8.9,,,,Partly Cloudy,60,2013-02-12 00:00:00
1:20 AM,28.4,23.0,80,29.71,-9999.0,ENE,8.1,-,N/A,,Clear,60,2013-02-12 00:20:00
1:50 AM,28.4,23.0,80,29.71,-9999.0,ENE,9.2,-,N/A,,Clear,60,2013-02-12 00:50:00
2:20 AM,26.6,21.2,80,29.71,-9999.0,ENE,9.2,-,N/A,,Clear,60,2013-02-12 01:20:00
2:50 AM,26.6,21.2,80,29.71,-9999.0,ENE,10.4,-,N/A,,Clear,60,2013-02-12 01:50:00
3:20 AM,26.6,21.2,80,29.74,5.6,ENE,8.1,-,N/A,,Unknown,70,2013-02-12 02:20:00
3:50 AM,24.8,19.4,80,29.74,5.0,NE,6.9,-,N/A,,Unknown,50,2013-02-12 02:50:00
4:00 AM,25,20,74,29.79,5,NE,6.7,,,,Scattered Clouds,50,2013-02-12 03:00:00
4:20 AM,24.8,19.4,80,29.74,5.0,NE,5.8,-,N/A,,Unknown,50,2013-02-12 03:20:00
4:50 AM,24.8,19.4,80,29.77,5.0,NE,5.8,-,N/A,,Unknown,50,2013-02-12 03:50:00
5:20 AM,23.0,19.4,86,29.77,4.3,ENE,3.5,-,N/A,,Unknown,60,2013-02-12 04:20:00
5:50 AM,24.8,19.4,80,29.77,4.3,ENE,9.2,-,N/A,,Unknown,60,2013-02-12 04:50:00
6:20 AM,24.8,19.4,80,29.77,4.3,NE,12.7,-,N/A,,Partly Cloudy,50,2013-02-12 05:20:00
6:50 AM,24.8,19.4,80,29.80,4.3,NE,8.1,-,N/A,,Scattered Clouds,50,2013-02-12 05:50:00
7:00 AM,25,20,74,29.84,4,NE,8.9,,,,Partly Cloudy,50,2013-02-12 06:00:00
7:20 AM,26.6,21.2,80,29.80,4.3,ENE,8.1,-,N/A,,Mostly Cloudy,60,2013-02-12 06:20:00
7:50 AM,26.6,21.2,80,29.80,5.0,ENE,8.1,-,N/A,,Mostly Cloudy,70,2013-02-12 06:50:00
8:20 AM,26.6,21.2,80,29.83,5.0,ENE,6.9,-,N/A,,Mostly Cloudy,70,2013-02-12 07:20:00
8:50 AM,26.6,21.2,80,29.83,5.0,ENE,6.9,-,N/A,,Mostly Cloudy,60,2013-02-12 07:50:00
9:20 AM,26.6,21.2,80,29.86,4.3,NE,6.9,-,N/A,,Mostly Cloudy,40,2013-02-12 08:20:00
9:50 AM,26.6,21.2,80,29.86,5.6,ENE,9.2,-,N/A,,Mostly Cloudy,70,2013-02-12 08:50:00
10:00 AM,27,21,68,29.91,6,ENE,8.9,,,,Mostly Cloudy,70,2013-02-12 09:00:00
10:20 AM,28.4,19.4,69,29.86,5.6,ENE,9.2,-,N/A,,Mostly Cloudy,60,2013-02-12 09:20:00
10:50 AM,28.4,21.2,74,29.89,5.6,ENE,9.2,-,N/A,,Mostly Cloudy,60,2013-02-12 09:50:00
11:20 AM,28.4,21.2,74,29.89,5.6,ENE,9.2,-,N/A,,Mostly Cloudy,70,2013-02-12 10:20:00
11:50 AM,28.4,21.2,74,29.89,6.2,ENE,9.2,-,N/A,,Mostly Cloudy,60,2013-02-12 10:50:00
12:20 PM,28.4,21.2,74,29.92,6.2,ENE,8.1,-,N/A,,Mostly Cloudy,60,2013-02-12 11:20:00
12:50 PM,28.4,21.2,74,29.92,6.2,NE,8.1,-,N/A,,Mostly Cloudy,50,2013-02-12 11:50:00
1:00 PM,29,21,63,29.96,6,NE,6.7,,,,Mostly Cloudy,50,2013-02-12 12:00:00
1:20 PM,28.4,23.0,80,29.92,5.0,NE,9.2,-,N/A,,Mostly Cloudy,50,2013-02-12 12:20:00
1:50 PM,28.4,21.2,74,29.92,5.6,NE,9.2,-,N/A,,Mostly Cloudy,50,2013-02-12 12:50:00
2:20 PM,30.2,19.4,64,29.92,6.2,ENE,8.1,-,N/A,,Mostly Cloudy,70,2013-02-12 13:20:00
2:50 PM,28.4,24.8,86,29.92,3.1,NNE,5.8,-,N/A,,Mostly Cloudy,20,2013-02-12 13:50:00
3:20 PM,28.4,23.0,80,29.95,3.1,NE,5.8,-,N/A,Snow,Light Snow,40,2013-02-12 14:20:00
3:50 PM,28.4,23.0,80,29.95,4.3,NNE,8.1,-,N/A,Snow,Light Snow,30,2013-02-12 14:50:00
4:00 PM,28,23,73,29.99,4,NNE,6.7,,,Snow,Light Snow,30,2013-02-12 15:00:00
4:20 PM,28.4,23.0,80,29.95,3.7,NE,6.9,-,N/A,Snow,Light Snow,50,2013-02-12 15:20:00
4:50 PM,28.4,21.2,74,29.95,5.0,NE,8.1,-,N/A,,Mostly Cloudy,50,2013-02-12 15:50:00
5:20 PM,28.4,19.4,69,29.95,6.2,NNE,8.1,-,N/A,,Mostly Cloudy,30,2013-02-12 16:20:00
5:50 PM,28.4,19.4,69,29.98,6.2,NE,6.9,-,N/A,,Mostly Cloudy,40,2013-02-12 16:50:00
6:20 PM,28.4,19.4,69,29.98,5.6,NE,6.9,-,N/A,,Mostly Cloudy,40,2013-02-12 17:20:00
6:50 PM,28.4,21.2,74,30.01,5.6,NE,6.9,-,N/A,,Mostly Cloudy,50,2013-02-12 17:50:00
7:00 PM,28,21,66,30.04,6,NE,6.7,,,,Partly Cloudy,50,2013-02-12 18:00:00
7:20 PM,28.4,19.4,69,30.01,5.6,NE,8.1,-,N/A,,Mostly Cloudy,40,2013-02-12 18:20:00
7:50 PM,28.4,17.6,64,30.01,5.6,NE,6.9,-,N/A,,Mostly Cloudy,40,2013-02-12 18:50:00
8:20 PM,28.4,17.6,64,30.04,6.2,East,5.8,-,N/A,,Mostly Cloudy,80,2013-02-12 19:20:00
8:50 PM,28.4,17.6,64,30.04,5.6,ENE,5.8,-,N/A,,Mostly Cloudy,60,2013-02-12 19:50:00
9:20 PM,28.4,17.6,64,30.04,5.6,ENE,3.5,-,N/A,,Mostly Cloudy,70,2013-02-12 20:20:00
9:50 PM,28.4,17.6,64,30.04,5.6,ENE,4.6,-,N/A,,Mostly Cloudy,70,2013-02-12 20:50:00
10:00 PM,28,17,51,30.10,6,ENE,4.5,,,,Mostly Cloudy,70,2013-02-12 21:00:00
10:20 PM,28.4,17.6,64,30.06,5.6,NE,3.5,-,N/A,,Mostly Cloudy,50,2013-02-12 21:20:00
10:50 PM,28.4,19.4,69,30.06,5.6,North,3.5,-,N/A,,Mostly Cloudy,10,2013-02-12 21:50:00
11:20 PM,28.4,19.4,69,30.06,5.0,Variable,2.3,-,N/A,,Mostly Cloudy,0,2013-02-12 22:20:00
11:50 PM,28.4,19.4,69,30.06,4.3,Variable,2.3,-,N/A,,Mostly Cloudy,0,2013-02-12 22:50:00